Weather in Rosario

Argentina     32°57′08″S   60°41′03″W
temp.,
°C
wind,
m/s
gust,
m/s
humid.,
%
clouds,
%
prec.,
mm/h
press.,
hPa
HPBL,
m
23 april, fri
fri2300:00+19ne25831 0.0 1013107
03:00+18ne39765 0.0 1013203
06:00+17ne2380100 0.0 101285
09:00+18ne367851 0.0 1013216
12:00+23n4665100 0.5 1013815
15:00+19w3596100 4.9 1011262
18:00+18ene2498100 12.1 1011169
21:00+18e1297100 13.1 101394
24 april, sat
sat2400:00+18nw119793 0.1 101474
03:00+18sw259796 0.4 1014246
06:00+17ssw259719 0.1 1014225
09:00+18s359211 0.1 1016274
12:00+21s467657 0.1 1017957
15:00+22s586711 0.3 10161313
18:00+20s38700 0.0 1016427
21:00+17s412670 0.0 1018402
25 april, sun
sun2500:00+14s310730 0.0 1020290
03:00+13s38790 0.0 1020213
06:00+11s36770 0.0 1020168
09:00+12s36730 0.0 1021221
12:00+17s35560 0.0 1021873
15:00+19s45540 0.0 10191448
18:00+17se24640 0.0 1019223
21:00+14sse23730 0.0 102063
26 april, mon
mon2600:00+13sse22770 0.0 102050
03:00+12se12820 0.0 102041
06:00+11se11870 0.0 102031
09:00+13ese12800 0.0 1021148
12:00+18e12630 0.0 1021816
15:00+21wnw115416 0.0 10191373
18:00+18ssw126581 0.0 1019118
21:00+17se227122 0.0 102085
27 april, tue
tue2700:00+14e11800 0.0 102029
03:00+13ne11810 0.0 102014
06:00+12ne11840 0.0 102015
09:00+14nne12790 0.0 1021142
12:00+19n23590 0.0 1021910
15:00+21nnw22500 0.0 10191326
18:00+18wnw12630 0.0 101819
21:00+15e11730 0.0 102028